Location: München
(48.1351°N, 11.5820°E)
Time: 17:31:30
(UTC+01:00)

ISS - Pass Details

Date: 01 February 2020
Orbit: 415 x 422 km, 51.6° (Epoch: 26 February)

Event Time Altitude Azimuth Distance (km) Brightness Sun altitude
Rises 20:05:18 0° 292° (WNW) 2,379 1.2 -28.9°
Reaches altitude 10° 20:07:26 10° 288° (WNW) 1,510 0.0 -29.3°
Enters shadow 20:08:21 17° 284° (WNW) 1,155 -0.8 -29.4°
